Theta_e
301 302 301 302 303 303 303 303 300 296 298 301 302 312 319 325 329 327 323 326 325 323 325 325 325 326 328 328 330 333 336 334 334 336 337 338 339 340
302 301 301 302 303 304 303 304 303 302 298 300 305 308 319 325 326 326 325 326 325 325 325 323 323 323 323 323 325 327 328 329 329 330 331 332 332 332
302 302 301 302 302 303 304 304 303 304 301 303 307 313 317 315 319 321 320 319 320 321 321 320 319 319 319 320 321 323 323 324 324 325 326 326 326 326
302 302 302 303 302 303 303 303 304 305 304 303 307 310 315 310 315 316 317 317 317 318 317 316 315 314 315 315 316 316 317 318 319 321 322 322 323 323
305 303 302 303 302 303 304 304 305 307 308 307 307 311 315 313 312 313 312 313 315 316 315 314 313 314 314 314 314 313 312 311 313 315 317 318 319 320
305 306 304 304 303 304 305 305 307 307 309 308 307 307 312 314 312 309 308 311 310 313 313 313 313 313 312 312 313 312 310 309 309 311 311 312 312 314
305 306 307 309 311 308 306 306 307 307 308 308 307 311 310 309 308 309 307 307 308 310 308 309 310 310 310 312 313 312 309 308 308 308 308 308 309 311
303 304 305 306 307 310 311 311 310 307 306 306 307 311 311 311 310 308 306 304 302 310 307 307 310 306 308 310 310 308 308 307 307 307 307 306 307 307
303 303 304 305 305 305 306 306 306 306 307 307 308 306 306 308 308 306 305 304 303 307 307 305 308 306 311 312 309 308 306 306 306 306 306 305 305 304
304 302 302 303 303 305 305 304 304 305 305 306 306 306 308 308 308 307 306 306 306 307 308 302 305 304 309 309 308 307 305 304 304 304 304 305 304 302
303 303 301 300 298 300 306 304 304 305 306 304 303 302 301 302 306 307 305 304 302 304 307 306 306 307 305 304 304 307 306 304 302 303 304 306 303 301
303 302 302 298 297 297 302 304 303 304 305 305 306 306 306 307 307 307 306 303 303 303 305 304 304 306 302 303 301 303 304 303 302 303 303 303 301 300
301 301 301 298 297 297 299 301 299 302 305 304 304 304 305 304 307 308 307 305 301 301 305 302 301 302 301 300 302 302 301 300 301 301 301 300 299 298
299 300 300 297 297 297 300 297 298 303 304 303 303 303 303 303 305 305 305 305 305 303 304 304 302 301 300 300 300 304 303 301 302 302 300 300 299 300
301 300 299 298 299 300 298 298 300 301 301 300 300 301 302 302 303 304 306 303 300 302 305 302 298 296 296 294 295 297 299 301 302 302 301 301 301 301
301 299 299 298 297 299 299 300 300 299 299 298 299 300 300 300 300 301 299 302 300 300 301 303 300 298 296 299 299 296 297 297 301 301 300 300 301 301
297 296 295 295 295 295 296 297 298 297 297 298 298 297 297 298 298 299 298 298 298 297 297 299 299 298 297 295 296 296 297 298 299 299 299 298 298 298
295 293 292 293 292 293 292 293 295 295 296 296 296 296 296 296 296 297 297 297 296 297 297 298 297 296 296 297 298 294 297 297 298 299 299 297 295 295
292 291 291 291 291 291 292 292 292 293 295 295 294 295 295 295 296 296 296 296 295 295 295 296 295 295 294 293 295 297 294 297 298 296 296 296 294 294
292 291 291 291 291 291 291 291 291 292 293 293 293 293 294 294 294 295 295 294 294 295 294 295 295 295 294 293 293 295 294 295 296 297 296 297 294 295
291 291 291 292 292 291 291 291 291 291 291 292 291 292 293 293 293 294 294 290 291 294 293 294 296 290 298 298 294 294 296 296 297 295 296 297 295 293
292 292 292 293 291 291 290 290 290 290 290 290 290 291 292 293 292 293 294 293 293 294 294 296 299 299 297 295 293 294 295 297 298 298 297 297 296 296
293 293 293 291 291 290 290 290 289 289 289 289 289 290 292 292 293 294 295 294 294 294 295 295 297 296 295 295 293 295 295 296 297 297 297 298 298 298
Wind_Speed
12 12 11 10 8 8 7 6 7 10 9 5 5 6 7 6 6 7 5 12 7 5 4 2 1 11 4 6 10 12 15 11 9 9 9 8 16 24
10 12 11 9 9 7 7 6 7 9 7 2 7 9 6 5 9 4 6 8 9 11 10 12 13 13 12 14 13 13 11 12 15 11 13 15 10 11
12 12 13 11 8 6 6 6 7 7 9 7 7 7 4 5 6 6 6 7 9 15 15 14 12 12 13 15 16 16 16 14 11 12 14 12 9 15
11 9 10 7 9 8 6 8 7 7 8 11 5 4 2 2 3 5 6 6 7 12 13 13 13 12 12 13 13 13 11 13 12 12 13 12 12 13
8 6 8 8 8 6 6 7 7 7 7 6 6 4 3 1 4 5 5 5 5 13 11 12 12 12 12 11 11 12 11 10 10 10 11 11 10 9
10 7 7 7 7 7 6 7 6 6 6 5 5 3 2 2 1 3 2 2 4 4 7 6 8 11 10 11 10 9 10 11 10 10 10 10 9 10
10 10 9 9 11 11 5 5 5 6 4 4 5 2 3 3 3 2 2 2 2 1 2 1 3 3 4 7 10 11 8 8 10 9 11 10 9 9
12 11 10 13 12 9 7 10 7 4 4 3 4 3 3 3 3 5 6 3 2 2 1 1 1 1 2 2 8 9 9 8 7 7 8 8 7 7
12 11 11 10 14 11 13 13 11 10 7 4 3 3 2 1 3 4 2 2 3 3 3 2 1 2 2 3 8 9 8 8 7 7 7 6 6 5
11 12 10 10 10 10 8 9 8 8 8 6 7 5 4 4 3 2 3 4 3 2 2 2 2 2 2 1 8 8 9 9 9 7 6 6 6 7
6 7 9 10 13 12 6 7 7 6 6 9 9 9 9 10 7 3 3 3 2 1 2 1 3 2 3 2 1 6 7 8 8 7 8 9 9 8
7 9 13 11 14 14 9 5 5 4 4 4 4 5 6 5 7 4 1 3 2 2 2 0 1 3 2 1 1 2 3 5 8 8 7 8 8 3
6 7 7 13 15 16 14 11 8 4 5 4 4 4 4 5 5 5 5 4 3 3 4 3 2 1 3 3 2 2 3 3 2 4 10 11 10 8
6 5 7 15 16 14 13 16 17 11 7 7 6 6 5 4 4 4 6 5 5 5 4 4 3 2 2 2 2 2 2 3 3 3 3 5 8 9
5 11 15 16 15 12 15 17 14 9 8 8 7 6 5 4 5 3 4 6 6 5 6 5 4 2 3 2 3 2 1 1 1 2 3 3 3 3
9 10 11 10 10 11 11 10 8 8 7 7 6 6 5 5 5 4 3 0 3 4 6 8 6 4 3 3 3 2 1 1 1 1 1 1 2 1
8 9 9 9 9 9 8 9 8 8 8 7 6 6 6 6 4 4 4 4 3 2 2 3 6 8 6 3 3 2 1 1 1 1 2 2 2 1
8 9 8 8 9 9 9 8 8 9 8 7 6 6 6 5 5 3 3 3 3 3 2 1 2 2 2 4 6 1 1 1 1 1 2 2 2 2
9 8 8 8 8 8 8 8 8 7 7 6 6 6 6 6 6 3 3 3 3 2 2 2 1 0 1 1 1 6 1 2 1 1 1 1 2 1
5 5 5 6 6 6 7 6 7 7 6 6 6 6 6 6 6 5 3 3 3 2 2 2 2 2 1 0 2 1 3 2 1 1 2 2 2 6
4 5 5 5 6 4 6 6 6 6 6 6 6 6 6 5 5 5 2 3 3 2 2 1 1 2 1 0 1 1 1 2 1 1 2 2 3 4
4 4 5 5 6 5 5 5 5 4 5 5 5 6 5 4 4 5 3 2 2 2 2 3 3 1 1 0 1 2 2 2 4 1 1 1 1 2
4 4 5 6 4 6 5 5 5 4 5 5 5 5 5 4 4 4 3 3 3 2 2 3 1 2 1 0 1 1 2 2 1 1 3 4 4 7
Wind_Direction
269 265 264 267 260 258 259 256 268 292 288 314 308 335 314 314 310 273 263 278 60 132 103 13 140 228 237 291 245 214 193 206 211 192 171 209 235 242
270 263 260 264 259 251 253 249 246 268 284 347 294 287 291 337 6 0 67 69 85 83 90 94 92 82 78 69 70 81 90 116 126 143 139 135 137 109
273 260 258 259 261 254 243 246 256 253 270 286 278 293 22 4 14 3 35 58 61 72 84 88 91 91 89 84 81 82 94 101 108 108 108 119 140 117
286 269 258 256 258 249 243 248 248 249 266 273 279 274 317 316 52 43 34 48 72 78 86 94 100 97 92 92 94 94 100 106 107 108 110 113 105 105
290 271 261 257 258 248 241 249 248 251 245 254 269 188 189 78 59 49 68 62 65 84 76 79 80 84 88 91 102 110 106 103 106 114 121 124 132 142
334 306 267 252 254 250 248 253 265 276 269 261 270 262 172 116 107 136 74 48 80 62 83 100 96 88 87 93 98 102 111 115 113 115 118 118 115 118
359 1 357 351 283 247 243 261 272 294 321 313 306 237 142 139 179 136 115 103 48 127 104 86 109 106 114 109 118 117 104 105 120 126 123 123 122 125
4 5 4 8 360 351 263 268 276 292 305 292 291 319 133 134 136 154 150 145 186 251 125 126 79 99 114 142 137 132 128 121 122 122 117 123 125 120
6 1 16 22 22 24 42 50 38 20 1 299 315 12 35 52 129 129 140 132 183 146 120 130 166 172 175 152 175 168 166 163 160 154 151 153 148 150
8 12 6 7 11 16 21 34 31 31 31 33 39 28 45 55 73 118 121 107 72 78 19 134 155 204 137 191 195 183 183 188 184 172 179 171 166 177
356 8 22 2 5 8 17 19 12 12 15 48 61 62 53 52 50 66 69 117 89 148 179 18 167 120 121 128 119 192 192 199 186 180 192 188 180 173
342 2 1 7 9 21 26 358 15 353 2 14 10 34 38 39 46 54 72 65 78 97 16 128 136 146 91 62 92 84 83 122 150 159 163 166 164 151
356 2 9 14 23 21 26 24 11 330 1 27 30 24 42 37 39 39 49 65 58 77 319 147 18 66 95 135 146 164 148 133 168 179 173 179 180 172
17 5 1 13 10 22 26 15 11 18 24 31 31 21 22 26 30 49 49 59 71 84 359 25 88 69 121 120 133 136 140 166 176 180 182 193 209 214
6 14 13 17 13 18 16 19 20 18 18 22 17 13 9 12 13 35 73 83 54 35 39 38 75 54 80 106 132 78 115 102 135 137 155 185 199 182
11 24 20 21 24 16 18 18 17 17 14 15 11 2 5 9 18 2 23 69 87 52 31 50 48 61 77 66 102 126 102 154 120 170 216 225 176 166
21 26 19 15 12 12 10 11 14 12 11 5 6 5 5 4 3 0 6 8 62 86 46 54 64 66 58 51 58 29 325 254 194 250 196 216 144 141
31 26 16 12 10 5 3 1 4 6 1 1 2 1 360 356 349 359 17 33 46 41 48 41 38 54 51 52 55 306 283 274 246 261 218 199 170 177
33 19 14 7 2 357 355 353 351 356 350 3 358 356 353 351 351 4 7 15 33 28 21 4 27 326 300 131 168 58 302 280 245 238 206 197 176 205
15 2 352 351 348 353 346 345 342 346 351 358 354 350 352 349 350 358 9 16 11 359 8 14 27 7 56 254 201 245 44 288 293 251 198 165 84 119
335 342 335 335 344 340 339 338 339 343 349 352 348 343 341 344 345 346 353 24 17 8 21 24 280 216 318 255 278 281 264 81 64 271 285 214 179 170
305 319 329 357 337 344 342 339 337 340 348 340 337 329 329 332 334 331 340 6 9 351 313 301 318 189 68 143 266 300 301 283 212 206 81 342 227 183
327 340 2 331 352 339 333 337 331 329 340 331 328 326 328 329 327 324 328 346 4 359 328 340 48 45 54 69 275 298 279 276 249 234 226 181 90 85